User: anonymous
Location: Caribou
(46.8667°N, 68.0167°W)
Time: 00:14:58
(UTC-04:00)
Language:

SL-08 RB Rocket - Orbit

View from above orbital plane
View from above orbital plane
View from above satellite
View from above satellite

Ground track
Ground track

The orbit data is extracted from the following two-line orbital elements,

1 26387U 00033D   14242.14584845  .00000359  00000-0  71967-4 0  5889
2 26387 098.0996 309.0285 0026058 341.7341 076.1652 14.67351626757939
Epoch (UTC): 30 August 2014 03:30:01
Eccentricity: 0.0026058
inclination: 98.0996°
perigee height: 651 km
apogee height: 688 km
right ascension of ascending node: 309.0285°
argument of perigee: 341.7341°
revolutions per day: 14.67351626
mean anomaly at epoch: 76.1652°
orbit number at epoch: 75793

The dashed part of the orbit path shows where the satellite is in the earth's shadow,  

DLR